Location: Clanezzo
(45.7500°N, 9.6000°E)
Time: 04:22:13
(UTC+00:00)

Thor Agena Rocket - Pass Details

Date: 12 May 2021
Orbit: 760 x 807 km, 99.0° (Epoch: 18 June)

Event Time Altitude Azimuth Distance (km) Brightness Sun altitude
Rises 23:33:56 0° 12° (NNE) 3,306 8.1 -25.8°
Reaches altitude 10° 23:36:16 10° 10° (N) 2,378 7.1 -25.7°
Maximum altitude 23:41:29 68° 289° (WNW) 865 3.7 -25.6°
Enters shadow 23:42:04 62° 249° (WSW) 901 3.6 -25.6°
